VCBIVRMM

Guest
Details From VCBI - BANDARANAIKE INTL COLOMBO
To VRMM - MALE INTL
Flight Number -
Tags decoded
Created
Modified
Stats Distance 495 nm / 916 km
Max Altitude 0 ft / 0 m
Waypoints 5
Social Downloads 4
Likes 0
Share

Download

Looking for another format? Having issues loading an existing format? Contact us
Advertisement - Login to hide

Notes

Requested: VCBI SUPSA GOKAN ATISA RAXON VRMM

Route

VCBI SUPSA ATISA RAXON VRMM

ID Type Via Altitude (ft/m) Position (lat/lon) Dist (leg/tot) Name
O VCBI APT - 0 / 0 7.18075 / 79.88412 - / 0 nm BANDARANAIKE INTL COLOMBO
SUPSA FIX - 0 / 0 6.78367 / 79.05223 55 / 55 nm
ATISA FIX - 0 / 0 3.35611 / 73.52722 389 / 444 nm
RAXON FIX - 0 / 0 3.94217 / 73.52967 35 / 479 nm
O VRMM APT - 0 / 0 4.19183 / 73.52913 14 / 494 nm MALE INTL

Altitude Profile

Advertisement - Login to hide

Weather


0- 5 10 15 20 25 30 35+ Temperature / °C

Clouds and Precipitation
Forecast for 2024-04-15 18:00 UTC. Updated 2 days ago

Ground ~20,000 ft ~40,000 ft Winds

VCBI

Details ICAO VCBI (CMB)
Name Bandaranaike International
Region Sri Lanka
Timezone Asia/Colombo (UTC+5.5)
Stats Elevation 30 ft / 9 m (AMSL)
Location 7.181250° 79.883800°
Runways 1
Magnetic Variation 1.617° W

METAR

VCBI 171210Z 27004KT 210V330 9999 FEW017 FEW019CB 32/26 Q1008 NOSIG RMK CB SE/S

Decode

TAF

TAF VCBI 171100Z 1712/1818 23008KT 9999 FEW018 TX34/1807Z TN26/1800Z PROB30 TEMPO 1712/1715 VRB10G20KT 7000 TSRA/SHRA FEW012 SCT016 FEW019CB BECMG 1718/1720 18005KT BECMG 1805/1807 25008KT

Decode

Departure Runways

ID Width Length Bearing (true/mag) Surface Threshold Overrun Markings Lighting
04 148 ft / 45 m 11,001 ft / 3,353 m 37.22° / 38.83° ASPHALT 0 ft / 0 m 407 ft / 124 m PREC-APP CENTERLINE EDGE THRESHOLD ALSF-I REIL-OMNI
22 148 ft / 45 m 11,001 ft / 3,353 m 217.22° / 218.84° ASPHALT 0 ft / 0 m 390 ft / 119 m PREC-APP CENTERLINE EDGE THRESHOLD ALSF-II TDZ REIL-OMNI

VRMM

Details ICAO VRMM (MLE)
Name Velana International
Region Maldives
Timezone Indian/Maldives (UTC+5.0)
Stats Elevation 5 ft / 2 m (AMSL)
Location 4.191670° 73.529200°
Runways 1
Magnetic Variation 2.355° W

METAR

VRMM 171200Z 29007KT 9999 FEW018TCU SCT280 31/27 Q1008 NOSIG

Decode

TAF

TAF VRMM 171100Z 1712/1818 30010KT 9999 FEW018TCU TEMPO 1713/1719 5000 TSRA FEW017CB

Decode

Destination Runways

ID Width Length Bearing (true/mag) Surface Threshold Overrun Markings Lighting
18 148 ft / 45 m 10,558 ft / 3,218 m 179.06° / 181.42° ASPHALT 331 ft / 101 m 0 ft / 0 m PREC-APP EDGE THRESHOLD REIL-OMNI
36 148 ft / 45 m 10,558 ft / 3,218 m 359.06° / 1.42° ASPHALT 951 ft / 290 m 59 ft / 18 m PREC-APP EDGE THRESHOLD SALS REIL-OMNI

Approach Navaids

Runway Type Ident Frequency Range Bearing (true/mag) Slope Elevation
36 GS IML 108.70 MHz 10 nm / 19 km 359.09° / 1.45 ° 3.00° 3 ft / 1 m (AMSL)
36 DME IML 108.70 MHz 18 nm / 33 km - - 22 ft / 7 m (AMSL)
36 LOC-ILS IML 108.70 MHz 18 nm / 33 km 359.09° / 1.45 ° - 3 ft / 1 m (AMSL)

Popular Alternatives